Regional Weather Roundup
Issued by NWS

Home | Current Version | Previous Version | Graphics & Text | Print | Product List | Glossary On
Versions: 1 2 3 4 5 6 7 8 9 10 11 12 13 14 15 16 17 18 19 20 21 22 23 24 25 26 27 28 29 30 31 32 33 34 35 36 37 38 39 40 41 42 43 44 45 46 47 48 49 50
235
ASUS43 KLMK 211702
RWRKY
KENTUCKY REGIONAL WEATHER ROUNDUP
NATIONAL WEATHER SERVICE LOUISVILLE KY
100 PM EDT THU MAY 21 2015

NOTE "FAIR" INDICATES FEW OR NO CLOUDS BELOW 12,000 FEET
WITH NO SIGNIFICANT WEATHER AND/OR OBSTRUCTIONS TO VISIBILITY.

KYZ001>023-026-027-061>063-070>075-211800-
WESTERN AND SOUTH CENTRAL KENTUCKY

CITY           SKY/WX    TMP DP  RH WIND       PRES   REMARKS
PADUCAH        PTSUNNY   56  42  59 N9        30.19R
HENDERSON      CLOUDY    54  45  71 NW10G16   30.16R
OWENSBORO      CLOUDY    54  45  71 NW9       30.15R
HOPKINSVILLE   CLOUDY    51  46  82 NW9       30.16R
BOWLING GREEN  CLOUDY    53  46  77 NW8       30.13S
GLASGOW        NOT AVBL
$$

KYZ024-025-028>034-038-045-046-053-211800-
NORTH CENTRAL KENTUCKY

CITY           SKY/WX    TMP DP  RH WIND       PRES   REMARKS
LOUISVILLE/SDF CLOUDY    56  46  69 NW10      30.09R
LOUISVILLE/LOU CLOUDY    56  45  66 NW10      30.09R
FORT KNOX      CLOUDY    52  46  82 NW7       30.08S
$$

KYZ035>037-039>044-047>052-055>060-089>105-211800-
NORTHEAST KENTUCKY

CITY           SKY/WX    TMP DP  RH WIND       PRES   REMARKS
LEXINGTON      CLOUDY    55  47  74 NW9       30.05S
COVINGTON      CLOUDY    54  44  69 NW13      30.06R
FRANKFORT      CLOUDY    56  46  69 VRB5      30.05S
$$

KYZ054-064>069-076>088-106>120-211800-
SOUTHEAST KENTUCKY

CITY           SKY/WX    TMP DP  RH WIND       PRES   REMARKS
JACKSON        CLOUDY    53  50  89 NW6       30.02S FOG
LONDON         CLOUDY    57  47  69 NW6       30.05R
SOMERSET       NOT AVBL
MIDDLESBORO    CLOUDY    58  53  81 NW10      30.05R
MONTICELLO     CLOUDY    54  53  96 NW9       30.10S FOG
$$




USA.gov is the U.S. government's official web portal to all federal, state and local government web resources and services.